Погода в Большой Шатьме

Россия / Чувашская Республика     55°49′13″N   47°00′27″E
темп.,
°C
ветер,
м/с
пор.,
м/с
влажн.,
%
обл.,
%
осадки,
мм/ч
давл.,
гПа
погр.,
м
21 апреля, ср
ср2100:00+5вюв81646100 0.0 1023654
03:00+4юв91947100 0.0 1021757
06:00+3юв102064100 0.6 1020796
09:00+2юв102086100 3.6 1019834
12:00+3юв101877100 0.0 1019828
15:00+3юв101777100 0.1 1018762
18:00+2ююв91790100 0.0 1017700
21:00+3ююв81692100 0.0 1017628
22 апреля, чт
чт2200:00+4ююв81694100 0.7 1016840
03:00+5ююз61289100 0.7 1018889
06:00+5ю4994100 0.2 1020297
09:00+7ю598772 0.2 1021481
12:00+11ююз7107373 0.7 10201292
15:00+12юз8106348 1.9 10201517
18:00+9зюз3673100 0.6 1021179
21:00+6зюз22825 0.6 102317
23 апреля, пт
пт2300:00+5юз22845 0.0 102317
03:00+4ююз228410 0.0 102411
06:00+5ю238117 0.0 102551
09:00+11ююв34605 0.0 1025510
12:00+14ююв345047 0.0 10241652
15:00+14юв4656100 0.0 1023336
18:00+12вюв3767100 0.0 1023176
21:00+10юв3871100 0.0 1022189
24 апреля, сб
сб2400:00+7юв35858 0.0 102184
03:00+5вюв359210 0.0 102083
06:00+6вюв3890100 0.0 1019267
09:00+10вюв566859 0.0 1017696
12:00+12вюв5563100 0.1 10151328
15:00+11вюв4570100 0.1 1013883
18:00+9вюв4879100 0.1 1012527
21:00+7вюв51088100 0.1 1010327
25 апреля, вс
вс2500:00+6вюв51293100 0.0 1008373
03:00+6ююв61191100 0.9 1005757
06:00+4зюз61394100 5.2 1008806
09:00+7зюз811685 5.3 10081303
12:00+10зюз91149100 0.1 10092373
15:00+10зюз8104399 0.1 10102540
18:00+8зюз595737 0.2 1011498
21:00+4юз49780 0.2 1012191